Temperature
6 5 5 5 4 4 4 3 3 3 3 2 2 2 1 1 0 -0 -0 -1 -1 -2 -2 -3 -4 -4 -4 -4 -4 -3 -3 -3 -3 -2 -2 -2 -2 -1 -1 -1 -0 0 1
6 5 5 5 4 4 3 3 3 2 2 2 2 1 1 0 -0 -1 -1 -2 -2 -2 -3 -4 -5 -5 -5 -5 -4 -4 -4 -4 -4 -3 -3 -3 -2 -2 -2 -1 -1 -0 0
6 5 5 4 4 4 3 3 2 2 2 2 1 1 1 0 -0 -1 -2 -2 -3 -3 -4 -4 -5 -6 -6 -6 -5 -5 -5 -5 -4 -4 -4 -3 -3 -3 -2 -2 -2 -1 -1
5 5 5 4 4 3 3 2 2 2 1 1 1 0 0 -0 -0 -1 -2 -3 -3 -4 -5 -5 -6 -6 -6 -6 -6 -6 -5 -5 -5 -5 -4 -4 -4 -3 -3 -3 -2 -2 -1
6 5 5 4 4 3 3 2 2 1 1 0 0 0 -0 -0 -1 -1 -2 -3 -3 -4 -5 -5 -6 -6 -7 -7 -7 -6 -6 -6 -6 -5 -5 -5 -4 -4 -3 -3 -3 -2 -2
6 5 5 4 4 3 3 2 1 1 1 -0 -1 -1 -1 -1 -1 -1 -2 -3 -3 -4 -5 -5 -6 -6 -7 -7 -7 -7 -7 -6 -6 -6 -6 -5 -5 -4 -4 -3 -3 -2 -2
6 5 5 4 4 3 3 2 1 1 0 -1 -2 -3 -3 -2 -1 -2 -2 -3 -3 -4 -4 -5 -6 -6 -7 -7 -7 -7 -7 -7 -7 -6 -6 -6 -5 -5 -4 -4 -3 -3 -2
6 5 5 4 4 3 2 2 1 1 -0 -1 -3 -5 -4 -4 -4 -3 -3 -3 -3 -4 -4 -5 -6 -6 -7 -7 -7 -7 -8 -8 -7 -7 -6 -6 -6 -5 -5 -4 -4 -3 -3
7 6 5 4 4 3 3 2 1 0 -0 -2 -2 -4 -5 -4 -4 -5 -5 -4 -4 -4 -5 -6 -6 -7 -7 -8 -8 -8 -8 -8 -8 -7 -7 -6 -6 -5 -5 -4 -4 -3 -3
8 7 6 5 4 3 3 2 1 0 -0 -1 -3 -3 -4 -5 -7 -6 -5 -6 -6 -6 -6 -7 -7 -7 -8 -8 -8 -8 -8 -9 -8 -8 -7 -7 -6 -6 -5 -5 -4 -4 -3
9 8 7 5 4 4 3 2 1 1 -0 -1 -2 -3 -4 -6 -7 -9 -7 -6 -6 -6 -6 -7 -7 -7 -8 -8 -8 -8 -9 -9 -9 -8 -8 -7 -7 -6 -6 -5 -5 -4 -4
10 9 7 6 5 4 3 2 1 1 -0 -1 -2 -3 -4 -6 -6 -7 -7 -7 -6 -6 -6 -7 -7 -7 -7 -8 -8 -8 -9 -9 -9 -8 -8 -8 -7 -7 -6 -6 -5 -5 -4
11 11 9 7 5 4 3 2 1 1 -0 -1 -1 -2 -3 -4 -5 -7 -8 -7 -7 -7 -7 -7 -6 -6 -7 -7 -8 -8 -9 -9 -9 -9 -9 -8 -8 -8 -7 -7 -6 -6 -5
11 10 9 7 6 4 3 2 1 1 -0 -1 -1 -2 -3 -4 -5 -6 -7 -8 -8 -8 -7 -6 -6 -6 -7 -7 -8 -9 -9 -9 -9 -9 -9 -9 -8 -8 -8 -7 -7 -6 -6
11 9 8 7 5 4 3 2 1 1 -0 -1 -1 -2 -3 -3 -5 -6 -7 -8 -9 -9 -8 -6 -7 -7 -7 -8 -8 -9 -9 -9 -9 -9 -9 -9 -8 -8 -8 -8 -7 -7 -6
10 8 7 6 5 3 2 2 1 0 -0 -1 -1 -2 -3 -3 -4 -5 -7 -8 -9 -10 -9 -8 -7 -7 -8 -8 -8 -9 -9 -9 -9 -9 -9 -9 -9 -8 -8 -8 -8 -7 -7
9 7 6 5 4 3 2 1 1 0 -0 -1 -1 -2 -2 -3 -4 -5 -7 -8 -9 -9 -10 -9 -8 -8 -8 -8 -8 -8 -9 -9 -9 -9 -9 -9 -9 -9 -9 -8 -8 -7 -7
8 7 5 4 3 2 1 1 0 -0 -1 -1 -1 -2 -3 -3 -4 -5 -6 -7 -8 -9 -9 -9 -9 -8 -8 -8 -8 -9 -9 -9 -9 -9 -9 -9 -9 -9 -9 -8 -8 -8 -7
7 6 5 3 2 1 0 0 0 -1 -1 -1 -2 -2 -3 -4 -4 -5 -6 -7 -8 -9 -9 -9 -9 -9 -8 -8 -8 -8 -9 -9 -9 -9 -9 -9 -9 -9 -9 -9 -8 -8 -7
7 5 4 3 1 0 -0 -0 -0 -1 -2 -2 -2 -3 -3 -4 -4 -5 -6 -7 -8 -9 -9 -9 -9 -8 -8 -8 -8 -8 -9 -9 -9 -9 -9 -9 -9 -9 -9 -9 -9 -8 -8
6 4 3 1 0 -1 -1 -1 -2 -2 -2 -2 -2 -3 -3 -3 -4 -5 -6 -6 -7 -8 -8 -8 -8 -8 -8 -8 -8 -8 -9 -9 -9 -9 -10 -10 -10 -10 -9 -9 -9 -9 -8
5 4 3 1 -0 -1 -2 -2 -3 -3 -3 -3 -3 -3 -3 -4 -4 -5 -6 -7 -7 -8 -8 -8 -8 -8 -8 -8 -8 -9 -9 -9 -9 -9 -10 -10 -10 -10 -10 -10 -9 -9 -9
5 4 2 1 -0 -2 -2 -3 -3 -4 -3 -3 -3 -4 -4 -4 -4 -5 -6 -7 -8 -8 -8 -8 -8 -8 -9 -9 -9 -10 -10 -10 -10 -10 -10 -10 -10 -10 -10 -10 -9 -9 -9
4 3 2 0 -1 -2 -3 -4 -4 -4 -4 -3 -3 -4 -4 -4 -5 -6 -7 -7 -7 -8 -8 -8 -9 -9 -9 -9 -10 -10 -10 -10 -11 -11 -11 -11 -10 -10 -10 -10 -9 -9 -8
3 2 1 -1 -2 -3 -4 -4 -5 -5 -5 -4 -4 -4 -4 -4 -5 -6 -7 -8 -8 -8 -8 -8 -9 -9 -9 -9 -10 -10 -11 -11 -11 -11 -11 -11 -11 -11 -10 -10 -9 -9 -8
2 1 -1 -2 -3 -4 -4 -4 -5 -5 -5 -5 -4 -5 -4 -4 -5 -6 -7 -8 -8 -8 -8 -9 -9 -9 -9 -10 -10 -11 -12 -12 -12 -12 -11 -11 -11 -11 -11 -10 -9 -8 -8
Wind_Speed
11 10 9 8 8 6 6 4 3 2 3 4 5 6 7 9 10 10 11 13 16 17 19 19 20 21 22 23 24 25 26 27 27 28 29 29 30 31 31 32 33 34 35
13 11 10 10 9 8 7 5 4 4 4 5 6 7 9 10 11 11 12 13 14 16 17 18 19 20 22 23 24 25 26 27 28 29 29 30 31 31 32 33 34 35 36
15 14 11 11 10 9 8 7 6 5 5 6 7 9 9 11 12 13 13 13 13 14 16 17 18 19 21 22 24 25 26 27 28 29 30 31 32 32 33 34 35 36 37
18 16 13 12 12 11 9 8 7 6 6 6 7 8 9 11 13 14 14 13 13 13 14 16 18 19 21 22 24 25 26 27 28 29 30 32 33 34 34 35 36 37 38
21 18 15 13 14 12 10 9 7 7 7 7 7 8 10 11 13 13 14 14 14 14 14 15 18 20 21 22 23 25 26 28 29 30 31 33 34 35 36 36 37 38 39
23 21 16 16 15 12 10 9 9 8 7 7 8 10 11 12 13 13 13 13 14 15 15 16 16 16 19 22 23 25 27 28 29 31 32 33 35 36 37 37 38 39 40
24 22 17 17 16 13 12 12 10 10 9 7 7 8 10 12 12 10 11 12 13 15 15 16 16 16 16 20 23 25 26 28 30 32 33 34 35 37 38 39 39 40 41
25 23 22 17 17 13 14 14 12 9 8 8 7 6 6 6 9 9 10 10 12 14 14 16 17 18 18 18 20 25 27 29 31 32 33 35 36 38 39 40 40 41 42
27 25 25 21 18 16 14 16 15 15 11 9 9 7 6 5 5 7 11 11 11 11 13 15 18 19 21 20 21 23 26 29 31 33 34 36 37 38 39 40 41 41 41
27 28 26 24 20 17 16 16 16 14 13 11 9 10 11 8 6 6 6 9 12 13 14 14 17 19 21 21 22 26 28 30 31 32 34 36 37 39 40 41 41 41 41
26 28 27 24 21 17 18 17 16 16 14 13 11 9 10 11 12 10 10 11 11 12 13 14 15 18 20 21 21 24 28 30 31 33 35 36 38 39 40 41 41 41 41
18 25 26 24 22 18 19 18 17 18 15 15 13 11 11 9 9 11 13 14 14 13 14 14 14 17 19 20 22 26 29 30 32 33 35 36 37 38 40 41 41 41 42
17 22 23 22 21 21 20 19 18 18 18 17 15 13 12 13 12 12 13 15 16 15 15 14 13 15 17 18 20 25 27 30 32 33 35 36 37 38 39 40 41 41 42
18 19 23 23 23 22 20 19 17 17 16 17 17 16 13 13 12 13 13 14 15 15 16 18 14 14 16 18 21 25 25 29 31 33 35 36 37 38 38 39 40 40 41
16 20 22 23 23 22 21 20 16 18 16 17 16 17 15 13 13 13 13 13 13 15 17 19 15 15 16 18 22 23 24 28 31 34 36 37 37 38 39 39 39 39 39
19 19 21 22 23 22 22 20 17 17 17 17 14 16 16 14 13 13 13 13 14 15 16 16 16 17 18 18 24 25 26 31 34 35 36 37 37 38 38 39 39 38 38
20 21 21 21 22 22 22 21 20 19 19 18 16 17 18 16 13 13 13 13 14 14 18 19 18 18 21 21 20 22 24 25 25 32 34 36 37 37 38 38 38 37 36
20 20 20 21 22 22 22 22 22 20 20 20 19 18 18 15 17 15 14 15 15 16 17 21 20 19 21 21 21 22 20 21 23 29 34 35 36 37 37 37 36 35 35
20 20 21 22 22 21 22 22 22 21 20 20 18 18 18 17 17 15 16 15 14 15 16 18 20 18 18 18 20 21 22 19 21 25 30 32 33 34 34 34 34 34 33
19 20 21 21 21 20 21 21 20 20 19 18 18 17 17 17 18 17 15 17 16 16 17 17 18 18 18 19 17 17 18 17 18 18 22 25 29 31 32 32 32 31 31
18 19 20 20 20 19 18 20 19 19 18 18 17 17 18 20 22 19 15 15 16 15 15 16 17 18 18 16 16 16 18 19 19 17 18 18 18 18 19 23 26 27 28
18 18 19 20 21 19 25 31 23 19 18 18 18 17 18 21 23 26 28 26 23 19 17 17 17 19 20 19 18 17 18 20 21 16 17 18 17 18 17 16 22 26 26
17 18 19 21 22 24 30 32 32 20 19 18 18 16 14 15 20 17 21 24 24 27 26 20 21 21 21 20 20 22 20 21 21 18 18 20 18 18 17 17 26 27 27
16 17 19 21 22 23 30 32 32 24 19 18 18 18 17 17 15 16 15 16 18 18 20 16 17 19 19 19 19 20 21 21 22 18 17 19 18 17 17 16 23 26 27
15 16 17 19 21 22 28 31 29 18 18 19 18 18 18 17 20 21 17 17 18 17 19 23 24 24 27 27 23 17 17 17 19 17 14 15 17 16 16 16 17 23 24
14 14 16 18 20 21 25 30 30 16 17 16 15 16 21 21 21 21 17 17 18 16 14 15 17 18 18 19 22 16 15 15 17 16 12 11 13 12 10 11 10 10 12
Wind_Direction
198 198 200 200 204 204 208 216 236 274 297 310 314 316 314 310 306 303 300 302 304 304 305 306 307 309 310 311 311 311 312 311 311 311 311 310 310 308 306 304 302 299 297
202 201 203 204 206 207 211 219 233 258 277 288 292 295 296 296 292 291 289 291 290 291 294 297 299 303 305 306 307 308 308 307 307 307 306 306 305 304 303 301 299 297 294
206 204 206 206 207 206 209 218 225 244 261 272 277 282 285 284 282 282 281 280 281 280 281 285 290 295 298 301 303 304 304 303 303 303 302 302 301 300 299 297 295 293 292
207 207 209 210 206 205 210 217 226 239 248 260 271 276 276 276 276 276 274 270 270 271 273 275 281 287 292 296 298 299 299 300 300 299 299 298 298 297 295 294 294 291 289
207 209 212 211 205 207 211 215 222 232 244 253 265 273 274 272 273 272 266 263 261 262 267 272 275 280 285 289 292 295 296 296 297 296 296 295 295 294 292 292 291 290 288
207 209 213 212 207 209 212 213 220 223 238 250 264 269 269 269 269 265 261 258 257 260 264 269 273 276 278 283 288 291 293 294 294 293 293 292 292 291 290 289 289 288 287
207 209 211 211 209 213 214 215 219 226 229 232 254 265 262 257 258 255 253 255 259 263 265 267 270 274 279 282 284 287 290 292 292 292 291 290 289 289 288 287 287 286 287
210 209 211 211 209 213 216 215 215 222 226 218 231 264 278 254 231 244 252 257 264 268 268 269 272 275 279 282 281 283 286 289 290 290 289 288 287 287 285 285 285 284 285
213 211 212 212 211 211 214 213 211 216 223 216 219 232 254 275 284 246 248 256 263 267 270 273 274 276 278 280 282 283 284 286 288 288 288 287 286 285 284 284 284 285 285
215 213 212 212 212 211 215 213 212 215 220 226 220 225 234 252 266 284 252 248 255 263 267 270 273 275 277 278 278 280 282 284 285 286 286 286 285 285 284 283 284 285 286
216 215 213 212 212 212 214 212 210 212 215 222 224 223 230 239 238 248 272 277 271 268 270 273 275 276 277 277 277 278 281 283 284 284 284 285 285 285 285 285 286 287 287
215 215 213 213 212 211 211 211 210 212 214 219 225 228 230 234 238 245 262 275 281 282 281 278 276 275 275 275 277 280 282 283 283 283 283 284 284 284 285 286 286 287 287
217 215 211 212 212 211 209 208 209 213 215 218 221 226 231 236 244 252 263 274 280 284 283 278 273 274 275 277 278 281 282 283 282 282 282 282 282 282 283 284 285 285 286
221 216 212 213 212 209 207 206 209 212 215 218 223 226 232 238 240 245 254 268 279 282 282 281 282 280 281 281 280 282 282 281 281 281 281 280 280 280 281 282 282 283 284
224 218 214 214 212 209 206 204 209 210 212 217 221 224 230 238 240 244 248 252 263 278 283 286 289 286 286 283 281 281 280 280 280 280 280 279 279 279 279 280 280 281 282
225 222 217 214 212 209 206 205 208 211 212 216 219 225 229 235 239 242 245 248 250 259 272 279 285 287 287 283 281 281 280 280 281 280 280 279 279 279 279 279 279 278 278
227 224 221 216 214 210 206 205 207 207 212 217 219 224 230 234 239 242 244 247 249 252 263 275 280 284 285 284 282 281 280 280 279 278 278 279 279 278 278 277 276 276 276
229 225 222 218 216 213 208 206 207 208 211 217 220 223 230 231 236 242 244 247 250 252 259 272 279 284 284 283 283 282 281 279 278 278 278 279 279 278 277 276 275 274 274
231 226 222 220 217 213 209 208 207 209 212 217 219 222 228 230 236 239 243 247 251 255 258 266 275 280 282 282 283 282 282 280 279 279 279 279 278 278 277 276 274 273 272
231 227 224 222 219 214 211 208 207 209 212 217 220 224 228 229 234 240 244 248 252 257 260 265 271 278 281 283 284 285 286 285 283 283 282 280 278 277 275 274 273 272 271
232 229 226 224 221 217 212 208 206 208 211 217 221 226 230 232 234 238 240 246 249 255 260 266 274 279 282 286 287 290 290 290 287 285 284 281 279 275 275 273 270 269 268
232 229 226 224 222 220 217 212 206 209 212 216 222 227 232 236 240 244 248 251 253 257 265 272 277 279 283 288 293 292 291 290 289 287 284 282 279 276 274 270 267 267 266
233 229 227 225 226 224 220 216 211 208 214 217 221 227 230 233 237 241 250 257 263 266 267 270 274 278 285 289 291 289 286 285 286 289 289 283 280 277 274 269 269 267 264
235 232 229 228 228 227 222 219 216 212 217 220 221 225 231 236 235 239 245 253 258 261 263 265 268 273 276 280 282 284 288 287 285 281 277 278 280 278 277 273 271 265 262
240 235 232 230 230 230 224 221 218 215 219 223 225 228 233 240 243 244 248 256 262 263 266 267 267 272 277 284 288 290 288 287 287 287 283 278 280 283 281 277 270 266 262
243 238 235 232 231 231 225 221 217 215 219 223 226 228 232 237 243 245 247 255 264 271 274 277 277 278 279 282 284 280 280 282 284 288 285 276 279 286 285 277 275 275 266
Height
1563 1563 1563 1562 1561 1560 1559 1558 1557 1556 1555 1553 1551 1549 1547 1544 1541 1539 1536 1533 1530 1528 1525 1524 1522 1520 1519 1517 1516 1514 1511 1509 1507 1505 1503 1501 1499 1498 1496 1495 1495 1494 1494
1559 1559 1558 1558 1557 1556 1555 1554 1553 1552 1551 1549 1547 1545 1543 1540 1537 1534 1531 1528 1525 1523 1520 1518 1517 1515 1514 1512 1511 1509 1506 1504 1502 1499 1497 1495 1494 1492 1491 1490 1489 1488 1488
1553 1553 1553 1553 1552 1551 1551 1550 1549 1548 1546 1545 1543 1541 1538 1536 1533 1530 1526 1523 1521 1518 1515 1512 1511 1509 1508 1507 1505 1503 1501 1498 1496 1493 1491 1489 1487 1486 1484 1483 1482 1481 1481
1547 1547 1547 1547 1547 1546 1545 1545 1544 1542 1541 1540 1538 1536 1533 1531 1528 1525 1522 1519 1516 1513 1510 1507 1505 1503 1502 1500 1498 1496 1494 1492 1489 1487 1484 1482 1481 1479 1478 1476 1475 1474 1473
1541 1541 1541 1541 1540 1540 1539 1539 1538 1537 1535 1534 1532 1530 1528 1525 1523 1520 1517 1514 1511 1507 1504 1502 1499 1497 1495 1493 1491 1489 1487 1485 1482 1479 1477 1475 1473 1472 1470 1469 1468 1466 1465
1533 1534 1534 1534 1533 1533 1533 1532 1532 1530 1529 1527 1525 1524 1522 1519 1517 1514 1511 1509 1505 1502 1499 1496 1494 1491 1488 1486 1484 1482 1479 1477 1474 1472 1470 1467 1466 1464 1462 1461 1459 1458 1456
1525 1525 1526 1526 1526 1526 1526 1526 1525 1524 1522 1520 1519 1516 1514 1512 1510 1508 1506 1503 1500 1497 1494 1491 1488 1485 1482 1479 1476 1473 1471 1468 1466 1464 1462 1459 1458 1456 1454 1452 1451 1449 1447
1515 1516 1517 1517 1518 1518 1518 1518 1518 1517 1516 1514 1513 1512 1510 1508 1503 1502 1500 1497 1494 1491 1488 1485 1482 1479 1476 1472 1468 1465 1462 1460 1458 1455 1453 1451 1449 1448 1446 1444 1442 1440 1437
1504 1505 1507 1508 1508 1509 1509 1509 1509 1509 1509 1508 1506 1506 1505 1502 1499 1495 1493 1490 1488 1485 1481 1478 1475 1472 1469 1465 1461 1457 1454 1451 1449 1447 1445 1443 1441 1439 1437 1435 1433 1430 1427
1494 1495 1497 1498 1499 1499 1500 1500 1500 1501 1501 1500 1499 1497 1497 1495 1493 1489 1487 1484 1481 1478 1475 1472 1468 1465 1462 1458 1454 1450 1446 1443 1440 1438 1436 1434 1432 1429 1427 1425 1422 1420 1417
1483 1484 1485 1487 1488 1489 1490 1491 1491 1491 1492 1492 1492 1490 1489 1488 1486 1483 1479 1478 1476 1473 1470 1466 1462 1458 1454 1450 1446 1442 1438 1435 1432 1429 1427 1425 1422 1420 1417 1415 1412 1409 1406
1470 1471 1473 1474 1476 1477 1479 1481 1481 1482 1482 1483 1483 1482 1481 1481 1479 1477 1473 1469 1467 1465 1462 1458 1454 1451 1447 1442 1438 1434 1430 1426 1423 1421 1418 1415 1413 1410 1407 1404 1402 1399 1395
1458 1458 1460 1462 1463 1465 1468 1470 1471 1472 1473 1473 1474 1473 1473 1471 1471 1469 1466 1462 1458 1455 1453 1450 1447 1443 1439 1435 1430 1426 1421 1418 1414 1411 1409 1406 1403 1400 1397 1394 1392 1388 1385
1447 1448 1449 1450 1452 1454 1457 1459 1460 1462 1463 1463 1464 1464 1464 1463 1462 1461 1459 1456 1451 1446 1444 1440 1439 1436 1432 1427 1422 1417 1412 1408 1405 1402 1399 1396 1393 1390 1387 1384 1381 1378 1374
1437 1437 1437 1438 1440 1442 1445 1447 1448 1451 1452 1453 1454 1455 1455 1454 1453 1452 1450 1449 1446 1439 1433 1430 1430 1427 1423 1419 1414 1409 1404 1400 1396 1392 1389 1385 1382 1379 1376 1373 1370 1367 1364
1427 1426 1425 1425 1427 1429 1432 1435 1437 1440 1442 1443 1445 1445 1445 1445 1444 1443 1441 1439 1437 1433 1426 1420 1419 1417 1414 1409 1405 1401 1395 1391 1386 1382 1378 1374 1371 1367 1364 1361 1358 1355 1353
1416 1415 1414 1414 1415 1417 1420 1423 1425 1429 1431 1433 1434 1435 1435 1436 1435 1434 1432 1430 1428 1424 1418 1411 1410 1407 1404 1400 1395 1392 1387 1381 1376 1371 1367 1363 1359 1356 1352 1349 1346 1343 1341
1405 1404 1404 1403 1404 1405 1408 1411 1414 1417 1420 1422 1424 1425 1426 1426 1425 1424 1422 1420 1418 1415 1411 1404 1400 1398 1394 1391 1386 1382 1377 1372 1366 1361 1356 1352 1347 1343 1340 1336 1334 1332 1330
1395 1393 1392 1391 1391 1393 1396 1399 1403 1406 1409 1412 1414 1415 1416 1416 1415 1414 1413 1411 1409 1406 1403 1398 1391 1389 1385 1381 1377 1371 1367 1361 1356 1351 1346 1341 1336 1332 1328 1325 1322 1320 1319
1385 1383 1381 1381 1381 1382 1384 1388 1391 1395 1398 1401 1403 1405 1406 1406 1405 1405 1403 1401 1400 1397 1395 1390 1384 1380 1376 1372 1368 1362 1356 1352 1346 1341 1335 1330 1325 1321 1316 1313 1310 1308 1307
1375 1373 1371 1370 1370 1371 1372 1376 1380 1384 1388 1391 1393 1395 1395 1396 1395 1395 1393 1391 1390 1388 1386 1382 1377 1372 1368 1364 1360 1355 1348 1342 1336 1333 1325 1320 1315 1310 1306 1303 1300 1298 1296
1365 1363 1360 1360 1359 1359 1361 1366 1370 1374 1378 1380 1382 1384 1385 1386 1386 1385 1384 1383 1383 1380 1377 1374 1369 1364 1359 1356 1352 1346 1340 1333 1324 1323 1318 1310 1307 1301 1297 1294 1291 1289 1287
1355 1352 1350 1349 1348 1349 1352 1356 1360 1364 1368 1370 1373 1375 1375 1376 1376 1375 1374 1373 1372 1371 1369 1366 1361 1356 1352 1348 1343 1337 1331 1325 1317 1312 1309 1299 1296 1291 1287 1283 1281 1279 1278
1345 1342 1340 1339 1338 1338 1342 1346 1351 1355 1357 1360 1362 1365 1366 1366 1366 1366 1364 1363 1361 1359 1358 1355 1351 1346 1342 1338 1334 1329 1322 1314 1307 1303 1300 1291 1286 1282 1278 1274 1270 1268 1268
1336 1333 1331 1329 1329 1329 1333 1337 1343 1345 1347 1350 1353 1355 1356 1357 1357 1357 1356 1354 1352 1350 1348 1345 1342 1338 1334 1330 1326 1320 1313 1307 1297 1293 1291 1285 1278 1274 1269 1264 1261 1259 1258
1327 1324 1321 1320 1320 1321 1323 1328 1333 1336 1339 1341 1344 1345 1347 1348 1348 1348 1348 1346 1344 1341 1339 1335 1332 1327 1323 1319 1315 1311 1305 1299 1291 1284 1281 1278 1273 1269 1262 1257 1255 1253 1252